Find Starlink 30494

NORAD ID: 57970 Int'l Des: 2023-151 Owner: SPXS Country: US Constellation: starlink operational
LEOCIRCULAR

リアルタイム位置

3D地球を読み込み中...

Starlink 30494について

説明を読み込み中...

次回通過

Passes for default location (London). Set your location on the main map for personalized predictions.

高度履歴

Loading altitude history...

軌道要素

1 57970U 23151G 26123.67323587 .00000908 00000-0 42545-4 0 9996
2 57970 43.0013 240.0319 0001033 268.0863 91.9870 15.27559022145866
Epoch: May 3, 2026 • Age: 9 hours

現在のステータス

高度 482.7 km
速度 7.63 km/s
衛星直下点 18.99°N, 164.6°E
打ち上げ日 Sep 30, 2023
運用期間 2.5 years
タイプ internet

技術仕様

分類 Payload
質量 730.00 kg
乾燥質量 700.00 kg
総質量 730.00 kg
長さ 0.30 m
直径 4.10 m
スパン 29.00 m
形状 Box + pan
製造者 SPXS
バスタイプ Starlink V2M
フェーズステータス In Orbit
所有者/国 SPXS/US

Most Searched